When you browse on this site, cookies collect data to enhance your experience and personalize the content and advertising you see.
Visit our Privacy Policy to learn more. By continuing to use the site, you agree to this use of cookies and data.
  • In Deutschland
  • Länderverzeichnis
  • Für 7 Tage
  • Wassertemperatur
  • Satellitenkarten
  • Wetterkarte
  • Widgets
  • user-avatar
    Anmelden

    Stündliche Wetter Sydney

    Heute, 26 März, Dienstag

    Zeit Temperatur Niederschläge Wind Luftdruck Luftfeuchtigkeit
    00:00 +23°C° 0 mm 5 m/S 758 mmHg 63%
    01:00 +22°C° 0 mm 5 m/S 759 mmHg 61%
    02:00 +21°C° 0 mm 5 m/S 759 mmHg 61%
    03:00 +20°C° 0 mm 5 m/S 759 mmHg 62%
    04:00 +20°C° 0 mm 4 m/S 759 mmHg 66%
    05:00 +20°C° 0 mm 4 m/S 759 mmHg 67%
    06:00 +19°C° 0 mm 4 m/S 760 mmHg 68%
    07:00 +19°C° 0 mm 4 m/S 760 mmHg 69%
    08:00 +20°C° 0 mm 5 m/S 760 mmHg 58%
    09:00 +21°C° 0 mm 5 m/S 761 mmHg 47%
    10:00 +22°C° 0 mm 6 m/S 761 mmHg 36%
    11:00 +23°C° 0 mm 6 m/S 761 mmHg 32%
    12:00 +26°C° 0 mm 5 m/S 761 mmHg 28%
    13:00 +27°C° 0 mm 5 m/S 761 mmHg 25%
    14:00 +27°C° 0 mm 5 m/S 761 mmHg 26%
    15:00 +26°C° 0 mm 5 m/S 761 mmHg 27%
    16:00 +26°C° 0 mm 4 m/S 761 mmHg 28%
    17:00 +25°C° 0 mm 5 m/S 762 mmHg 37%
    18:00 +22°C° 0 mm 5 m/S 763 mmHg 46%
    19:00 +21°C° 0 mm 5 m/S 763 mmHg 55%
    20:00 +21°C° 0 mm 4 m/S 764 mmHg 55%
    21:00 +20°C° 0 mm 4 m/S 765 mmHg 56%
    22:00 +20°C° 0 mm 4 m/S 765 mmHg 56%
    23:00 +20°C° 0 mm 3 m/S 766 mmHg 57%

    Morgen, 27 März, Mittwoch

    Zeit Temperatur Niederschläge Wind Luftdruck Luftfeuchtigkeit
    00:00 +19°C° 0 mm 3 m/S 766 mmHg 58%
    01:00 +19°C° 0 mm 2 m/S 766 mmHg 59%
    02:00 +19°C° 0 mm 3 m/S 766 mmHg 60%
    03:00 +19°C° 0 mm 3 m/S 766 mmHg 61%
    04:00 +19°C° 0 mm 3 m/S 766 mmHg 62%
    05:00 +19°C° 0 mm 3 m/S 766 mmHg 63%
    06:00 +19°C° 0 mm 3 m/S 767 mmHg 64%
    07:00 +19°C° 0 mm 3 m/S 767 mmHg 64%
    08:00 +20°C° 0 mm 3 m/S 767 mmHg 63%
    09:00 +20°C° 0 mm 3 m/S 767 mmHg 62%
    10:00 +21°C° 0 mm 3 m/S 768 mmHg 61%
    11:00 +22°C° 0 mm 3 m/S 767 mmHg 58%
    12:00 +22°C° 0 mm 3 m/S 767 mmHg 54%
    13:00 +23°C° 0 mm 4 m/S 767 mmHg 51%
    14:00 +23°C° 0 mm 4 m/S 766 mmHg 51%
    15:00 +23°C° 0 mm 4 m/S 766 mmHg 52%
    16:00 +22°C° 0 mm 4 m/S 766 mmHg 53%
    17:00 +21°C° 0 mm 3 m/S 766 mmHg 55%
    18:00 +21°C° 0 mm 3 m/S 766 mmHg 57%
    19:00 +20°C° 0 mm 2 m/S 767 mmHg 59%
    20:00 +20°C° 0 mm 2 m/S 767 mmHg 60%
    21:00 +21°C° 0 mm 1 m/S 767 mmHg 60%
    22:00 +21°C° 0 mm 1 m/S 767 mmHg 61%
    23:00 +20°C° 0 mm 1 m/S 767 mmHg 63%

    übermorgen, 28 März, Donnerstag

    Zeit Temperatur Niederschläge Wind Luftdruck Luftfeuchtigkeit
    00:00 +20°C° 0 mm 1 m/S 766 mmHg 66%
    01:00 +19°C° 0 mm 1 m/S 766 mmHg 68%
    02:00 +19°C° 0 mm 1 m/S 766 mmHg 70%
    03:00 +18°C° 0 mm 1 m/S 765 mmHg 72%
    04:00 +17°C° 0 mm 2 m/S 765 mmHg 75%
    05:00 +17°C° 0 mm 2 m/S 765 mmHg 75%
    06:00 +17°C° 0 mm 2 m/S 765 mmHg 74%
    07:00 +17°C° 0 mm 2 m/S 765 mmHg 74%
    08:00 +20°C° 0 mm 2 m/S 765 mmHg 66%
    09:00 +23°C° 0 mm 1 m/S 765 mmHg 59%
    10:00 +25°C° 0 mm 1 m/S 765 mmHg 51%
    11:00 +26°C° 0 mm 1 m/S 764 mmHg 49%
    12:00 +26°C° 0 mm 2 m/S 764 mmHg 48%
    13:00 +27°C° 0 mm 3 m/S 763 mmHg 46%
    14:00 +27°C° 0 mm 3 m/S 762 mmHg 50%
    15:00 +26°C° 0 mm 4 m/S 762 mmHg 53%
    16:00 +26°C° 0 mm 5 m/S 761 mmHg 56%
    17:00 +25°C° 0 mm 5 m/S 761 mmHg 61%
    18:00 +23°C° 0 mm 5 m/S 761 mmHg 66%
    19:00 +22°C° 0 mm 5 m/S 762 mmHg 71%
    20:00 +22°C° 0 mm 4 m/S 762 mmHg 74%
    21:00 +22°C° 0 mm 4 m/S 762 mmHg 76%
    22:00 +21°C° 0 mm 4 m/S 762 mmHg 79%
    23:00 +21°C° 0 mm 4 m/S 762 mmHg 80%

    29 März, Freitag

    Zeit Temperatur Niederschläge Wind Luftdruck Luftfeuchtigkeit
    00:00 +20°C° 0 mm 4 m/S 761 mmHg 82%
    01:00 +20°C° 0 mm 3 m/S 760 mmHg 83%
    02:00 +20°C° 0 mm 3 m/S 760 mmHg 84%
    03:00 +19°C° 0 mm 3 m/S 760 mmHg 84%
    04:00 +19°C° 0 mm 3 m/S 759 mmHg 85%
    05:00 +19°C° 0 mm 2 m/S 759 mmHg 84%
    06:00 +19°C° 0 mm 2 m/S 759 mmHg 84%
    07:00 +19°C° 0 mm 2 m/S 759 mmHg 83%
    08:00 +21°C° 0 mm 3 m/S 759 mmHg 75%
    09:00 +24°C° 0 mm 3 m/S 759 mmHg 66%
    10:00 +26°C° 0 mm 4 m/S 759 mmHg 58%
    11:00 +27°C° 0 mm 4 m/S 758 mmHg 53%
    12:00 +29°C° 0 mm 4 m/S 757 mmHg 49%
    13:00 +30°C° 0 mm 4 m/S 756 mmHg 45%
    14:00 +29°C° 0 mm 4 m/S 755 mmHg 48%
    15:00 +29°C° 0 mm 4 m/S 755 mmHg 51%
    16:00 +28°C° 0 mm 5 m/S 754 mmHg 54%
    17:00 +27°C° 0.4 mm 5 m/S 754 mmHg 60%
    18:00 +26°C° 0.4 mm 4 m/S 754 mmHg 66%
    19:00 +25°C° 0.4 mm 4 m/S 754 mmHg 72%
    20:00 +25°C° 1 mm 4 m/S 755 mmHg 75%
    21:00 +23°C° 1 mm 4 m/S 755 mmHg 79%
    22:00 +23°C° 1 mm 4 m/S 755 mmHg 82%
    23:00 +22°C° 1 mm 4 m/S 754 mmHg 82%

    30 März, Samstag

    Zeit Temperatur Niederschläge Wind Luftdruck Luftfeuchtigkeit
    00:00 +20°C° 1 mm 4 m/S 754 mmHg 82%
    01:00 +19°C° 1 mm 4 m/S 754 mmHg 82%
    02:00 +19°C° 0.1 mm 4 m/S 754 mmHg 81%
    03:00 +19°C° 0.1 mm 4 m/S 754 mmHg 80%
    04:00 +18°C° 0.1 mm 4 m/S 754 mmHg 79%
    05:00 +17°C° 0 mm 5 m/S 755 mmHg 79%
    06:00 +17°C° 0 mm 5 m/S 755 mmHg 78%
    07:00 +17°C° 0 mm 6 m/S 756 mmHg 77%
    08:00 +18°C° 0.1 mm 7 m/S 756 mmHg 74%
    09:00 +20°C° 0.1 mm 7 m/S 757 mmHg 71%
    10:00 +21°C° 0.1 mm 8 m/S 757 mmHg 68%
    11:00 +21°C° 0.1 mm 8 m/S 757 mmHg 65%
    12:00 +21°C° 0.1 mm 8 m/S 757 mmHg 62%
    13:00 +21°C° 0.1 mm 9 m/S 757 mmHg 59%
    14:00 +19°C° 0 mm 9 m/S 757 mmHg 58%
    15:00 +19°C° 0 mm 9 m/S 758 mmHg 56%
    16:00 +19°C° 0 mm 9 m/S 758 mmHg 55%
    17:00 +19°C° 0 mm 9 m/S 759 mmHg 55%
    18:00 +18°C° 0 mm 9 m/S 760 mmHg 55%
    19:00 +17°C° 0 mm 9 m/S 760 mmHg 56%
    20:00 +17°C° 0 mm 8 m/S 761 mmHg 58%
    21:00 +17°C° 0 mm 8 m/S 761 mmHg 61%
    22:00 +16°C° 0 mm 7 m/S 762 mmHg 63%
    23:00 +16°C° 0 mm 7 m/S 762 mmHg 64%

    31 März, Sonntag

    Zeit Temperatur Niederschläge Wind Luftdruck Luftfeuchtigkeit
    00:00 +16°C° 0 mm 6 m/S 762 mmHg 65%
    01:00 +15°C° 0 mm 6 m/S 762 mmHg 66%
    02:00 +15°C° 0 mm 5 m/S 762 mmHg 66%
    03:00 +14°C° 0 mm 5 m/S 762 mmHg 66%
    04:00 +14°C° 0 mm 5 m/S 762 mmHg 67%
    05:00 +14°C° 0 mm 5 m/S 762 mmHg 66%
    06:00 +13°C° 0 mm 4 m/S 762 mmHg 66%
    07:00 +13°C° 0 mm 4 m/S 763 mmHg 65%
    08:00 +16°C° 0 mm 3 m/S 763 mmHg 58%
    09:00 +18°C° 0 mm 3 m/S 763 mmHg 50%
    10:00 +20°C° 0 mm 2 m/S 763 mmHg 43%
    11:00 +23°C° 0 mm 2 m/S 763 mmHg 39%
    12:00 +24°C° 0 mm 1 m/S 762 mmHg 35%
    13:00 +24°C° 0 mm 0 m/S 762 mmHg 31%
    14:00 +25°C° 0 mm 1 m/S 761 mmHg 32%
    15:00 +25°C° 0 mm 2 m/S 761 mmHg 34%
    16:00 +24°C° 0 mm 3 m/S 761 mmHg 36%
    17:00 +22°C° 0 mm 3 m/S 761 mmHg 41%
    18:00 +21°C° 0 mm 3 m/S 762 mmHg 46%
    19:00 +19°C° 0 mm 3 m/S 763 mmHg 51%
    20:00 +19°C° 0 mm 2 m/S 763 mmHg 53%
    21:00 +19°C° 0 mm 2 m/S 763 mmHg 55%
    22:00 +19°C° 0 mm 1 m/S 764 mmHg 56%
    23:00 +19°C° 0 mm 1 m/S 764 mmHg 59%
    Mehr zeigen